Corpus Christi, TX

2:37 AM CDT on October 19, 2017 (GMT -0500)
Corpus Christi International

Weather History for KCRP - March, 2013

Change the Weather History Date:

Thursday, March 21, 2013

  Actual Average Record
Temperature  
Mean Temperature 69 °F 67 °F  
Max Temperature 78 °F 77 °F 93 °F (1955)
Min Temperature 60 °F 57 °F 33 °F (1965)
Degree Days  
Heating Degree Days 0 2  
Month to date heating degree days 43 65  
Since 1 July heating degree days 495 865  
Cooling Degree Days 4 4  
Month to date cooling degree days 91 68  
Year to date cooling degree days 235 144  
Growing Degree Days 19 (Base 50)    
Moisture  
Dew Point 58 °F    
Average Humidity 65    
Maximum Humidity 79    
Minimum Humidity 50    
Precipitation  
Precipitation 0.00 in 0.06 in 0.88 in (1979)
Month to date precipitation 0.06 1.31  
Year to date precipitation 1.75 4.78  
Snow  
Snow 0.00 in - - ()
Month to date snowfall 0.0  
Since 1 July snowfall 0.0  
Snow Depth 0.00 in    
Sea Level Pressure  
Sea Level Pressure 29.85 in    
Wind  
Wind Speed 16 mph (SSE)    
Max Wind Speed 28 mph    
Max Gust Speed 35 mph    
Visibility 10 miles    
Events      
T = Trace of Precipitation, MM = Missing Value Source: NWS Daily Summary

Daily Weather History Graph

Daily Weather History Graph

Search for Another Location

Airport or City:

Trip Planner

Search our weather history database for the weather conditions in past years. The results will help you decide how hot, cold, wet, or windy it might be!

Date:

Astronomy

Mar. 21, 2013 Rise Set
Actual Time 7:32 AM CDT 7:42 PM CDT
Civil Twilight 7:09 AM CDT 8:05 PM CDT
Nautical Twilight 6:41 AM CDT 8:32 PM CDT
Astronomical Twilight 6:14 AM CDT 9:00 PM CDT
Moon 2:37 PM CDT (3/21) 3:29 AM CDT (3/21)
Length of Visible Light 12h 56m
Length of Day
12h 09m
Waxing Gibbous, 69% of the Moon is Illuminated
Mar 21
Waxing Gibbous
Mar 27
Full
Apr 2
Last Quarter
Apr 10
New
Apr 18
First Quarter

Hourly Weather History & Observations

Time (CDT) Temp. Dew Point Humidity Pressure Visibility Wind Dir Wind Speed Gust Speed Precip Events Conditions
12:51 AM 63.0 °F 54.0 °F 72% 30.03 in 10.0 mi SE 6.9 mph - N/A   Partly Cloudy
1:51 AM 61.0 °F 52.0 °F 72% 30.01 in 10.0 mi SE 3.5 mph - N/A   Partly Cloudy
2:51 AM 63.0 °F 55.0 °F 75% 29.99 in 10.0 mi East 3.5 mph - N/A   Mostly Cloudy
3:33 AM 62.6 °F 53.6 °F 72% 29.97 in 10.0 mi SSE 5.8 mph - N/A   Mostly Cloudy
3:49 AM 62.6 °F 53.6 °F 72% 29.95 in 10.0 mi SE 9.2 mph - N/A   Scattered Clouds
3:51 AM 64.0 °F 54.0 °F 70% 29.95 in 10.0 mi SE 9.2 mph - N/A   Scattered Clouds
4:51 AM 63.0 °F 55.0 °F 75% 29.94 in 10.0 mi SE 4.6 mph - N/A   Mostly Cloudy
5:51 AM 63.0 °F 54.0 °F 72% 29.92 in 10.0 mi SE 4.6 mph - N/A   Mostly Cloudy
6:51 AM 61.0 °F 54.0 °F 78% 29.93 in 10.0 mi SE 5.8 mph - N/A   Scattered Clouds
7:51 AM 61.0 °F 53.1 °F 75% 29.94 in 10.0 mi Calm Calm - N/A   Scattered Clouds
8:51 AM 66.0 °F 59.0 °F 78% 29.93 in 10.0 mi SE 4.6 mph - N/A   Scattered Clouds
9:51 AM 73.0 °F 60.1 °F 64% 29.91 in 10.0 mi SSE 17.3 mph 23.0 mph N/A   Scattered Clouds
10:51 AM 75.9 °F 55.9 °F 50% 29.90 in 10.0 mi South 20.7 mph 26.5 mph N/A   Partly Cloudy
11:51 AM 77.0 °F 57.0 °F 50% 29.87 in 10.0 mi South 21.9 mph 34.5 mph N/A   Mostly Cloudy
12:51 PM 75.0 °F 57.9 °F 55% 29.85 in 10.0 mi South 21.9 mph - N/A   Overcast
1:51 PM 75.9 °F 59.0 °F 56% 29.81 in 10.0 mi SSE 18.4 mph - N/A   Overcast
2:51 PM 75.9 °F 59.0 °F 56% 29.77 in 10.0 mi SSE 20.7 mph 25.3 mph N/A   Overcast
3:51 PM 75.9 °F 59.0 °F 56% 29.72 in 10.0 mi SSE 23.0 mph - N/A   Overcast
4:51 PM 75.9 °F 60.1 °F 58% 29.70 in 10.0 mi SSE 23.0 mph - N/A   Overcast
5:51 PM 75.9 °F 61.0 °F 60% 29.69 in 10.0 mi SSE 24.2 mph 32.2 mph N/A   Overcast
6:51 PM 73.9 °F 62.1 °F 66% 29.69 in 10.0 mi SSE 21.9 mph 29.9 mph N/A   Overcast
7:51 PM 73.0 °F 62.1 °F 68% 29.68 in 10.0 mi SSE 21.9 mph - N/A   Overcast
8:51 PM 72.0 °F 63.0 °F 73% 29.68 in 10.0 mi SSE 21.9 mph 27.6 mph N/A   Overcast
9:51 PM 72.0 °F 64.0 °F 76% 29.70 in 10.0 mi SSE 19.6 mph - N/A   Overcast
10:51 PM 72.0 °F 64.0 °F 76% 29.71 in 10.0 mi SSE 21.9 mph - N/A   Overcast
11:51 PM 72.0 °F 64.9 °F 78% 29.69 in 10.0 mi South 20.7 mph - N/A   Mostly Cloudy